TimeCDT,TemperatureF,Dew PointF,Humidity,Sea Level PressureIn,VisibilityMPH,Wind Direction,Wind SpeedMPH,Gust SpeedMPH,PrecipitationIn,Events,Conditions,WindDirDegrees,DateUTC
12:13 AM,30.2,23.0,75,30.04,10.0,NW,5.8,-,N/A,,Overcast,320,2013-10-23 05:13:00
12:33 AM,30.2,24.8,80,30.04,10.0,NW,5.8,-,N/A,,Overcast,320,2013-10-23 05:33:00
12:53 AM,30.2,24.8,80,30.04,10.0,NW,4.6,-,N/A,,Overcast,320,2013-10-23 05:53:00
1:13 AM,30.2,24.8,80,30.04,10.0,NW,3.5,-,N/A,,Overcast,320,2013-10-23 06:13:00
1:33 AM,30.2,23.0,75,30.04,10.0,NW,3.5,-,N/A,,Overcast,310,2013-10-23 06:33:00
1:53 AM,30.2,23.0,75,30.03,10.0,WNW,3.5,-,N/A,,Overcast,290,2013-10-23 06:53:00
2:13 AM,30.2,23.0,75,30.03,10.0,WNW,3.5,-,N/A,,Overcast,290,2013-10-23 07:13:00
2:33 AM,30.2,23.0,75,30.03,10.0,West,3.5,-,N/A,,Overcast,280,2013-10-23 07:33:00
2:53 AM,30.2,23.0,75,30.03,10.0,WNW,4.6,-,N/A,,Overcast,290,2013-10-23 07:53:00
3:14 AM,30.2,23.0,75,30.03,10.0,WNW,4.6,-,N/A,,Overcast,300,2013-10-23 08:14:00
3:33 AM,30.2,23.0,75,30.03,10.0,WNW,6.9,-,N/A,,Overcast,300,2013-10-23 08:33:00
3:53 AM,30.2,24.8,80,30.02,10.0,WNW,5.8,-,N/A,,Overcast,290,2013-10-23 08:53:00
4:14 AM,30.2,24.8,80,30.03,10.0,NW,5.8,-,N/A,,Overcast,320,2013-10-23 09:14:00
4:33 AM,30.2,23.0,75,30.03,10.0,NNW,6.9,-,N/A,,Overcast,330,2013-10-23 09:33:00
4:53 AM,28.4,23.0,80,30.03,10.0,NNW,8.1,-,N/A,,Overcast,330,2013-10-23 09:53:00
5:14 AM,28.4,23.0,80,30.04,10.0,NNW,9.2,-,N/A,,Overcast,340,2013-10-23 10:14:00
5:33 AM,28.4,23.0,80,30.04,10.0,NNW,6.9,-,N/A,,Overcast,330,2013-10-23 10:33:00
5:53 AM,28.4,21.2,74,30.04,10.0,NNW,6.9,-,N/A,,Mostly Cloudy,330,2013-10-23 10:53:00
6:14 AM,28.4,21.2,74,30.04,10.0,NNW,5.8,-,N/A,,Mostly Cloudy,340,2013-10-23 11:14:00
6:33 AM,28.4,21.2,74,30.05,10.0,NNW,4.6,-,N/A,,Overcast,330,2013-10-23 11:33:00
6:53 AM,28.4,21.2,74,30.05,10.0,NW,4.6,-,N/A,,Overcast,310,2013-10-23 11:53:00
7:14 AM,28.4,23.0,80,30.06,10.0,NW,4.6,-,N/A,,Overcast,320,2013-10-23 12:14:00
7:33 AM,26.6,23.0,86,30.06,10.0,NW,3.5,-,N/A,,Mostly Cloudy,320,2013-10-23 12:33:00
7:53 AM,26.6,23.0,86,30.06,10.0,NNW,3.5,-,N/A,,Overcast,330,2013-10-23 12:53:00
8:13 AM,26.6,23.0,86,30.07,10.0,NW,3.5,-,N/A,,Overcast,310,2013-10-23 13:13:00
8:33 AM,26.6,23.0,86,30.07,10.0,Calm,Calm,-,N/A,,Overcast,0,2013-10-23 13:33:00
8:53 AM,28.4,24.8,86,30.08,10.0,WNW,3.5,-,N/A,,Overcast,300,2013-10-23 13:53:00
9:13 AM,28.4,24.8,86,30.08,10.0,WNW,3.5,-,N/A,,Overcast,300,2013-10-23 14:13:00
9:33 AM,30.2,23.0,75,30.08,10.0,WNW,5.8,-,N/A,,Overcast,300,2013-10-23 14:33:00
9:54 AM,30.2,23.0,75,30.08,10.0,NW,11.5,-,N/A,,Overcast,310,2013-10-23 14:54:00
10:13 AM,32.0,23.0,69,30.09,10.0,NW,10.4,-,N/A,,Overcast,320,2013-10-23 15:13:00
10:33 AM,33.8,23.0,65,30.09,10.0,North,12.7,17.3,N/A,,Scattered Clouds,350,2013-10-23 15:33:00
10:53 AM,33.8,23.0,65,30.10,10.0,NNW,16.1,-,N/A,,Mostly Cloudy,330,2013-10-23 15:53:00
11:13 AM,33.8,21.2,60,30.10,10.0,NNW,10.4,-,N/A,,Mostly Cloudy,330,2013-10-23 16:13:00
11:33 AM,35.6,21.2,56,30.10,10.0,North,12.7,-,N/A,,Mostly Cloudy,350,2013-10-23 16:33:00
11:53 AM,33.8,21.2,60,30.10,10.0,NNW,9.2,-,N/A,,Mostly Cloudy,330,2013-10-23 16:53:00
12:13 PM,35.6,21.2,56,30.10,10.0,NNW,11.5,-,N/A,,Scattered Clouds,330,2013-10-23 17:13:00
12:33 PM,35.6,21.2,56,30.10,10.0,NW,4.6,16.1,N/A,,Mostly Cloudy,320,2013-10-23 17:33:00
12:53 PM,35.6,21.2,56,30.10,10.0,NNW,9.2,-,N/A,,Mostly Cloudy,330,2013-10-23 17:53:00
1:13 PM,35.6,23.0,60,30.10,10.0,NW,8.1,-,N/A,,Mostly Cloudy,320,2013-10-23 18:13:00
1:33 PM,35.6,23.0,60,30.10,10.0,NNW,8.1,17.3,N/A,,Mostly Cloudy,340,2013-10-23 18:33:00
1:53 PM,37.4,23.0,56,30.10,10.0,WNW,8.1,-,N/A,,Overcast,300,2013-10-23 18:53:00
2:13 PM,37.4,24.8,60,30.09,10.0,NW,9.2,-,N/A,,Overcast,310,2013-10-23 19:13:00
2:33 PM,37.4,24.8,60,30.09,10.0,NW,10.4,-,N/A,,Overcast,320,2013-10-23 19:33:00
2:54 PM,35.6,24.8,65,30.09,10.0,WNW,11.5,-,N/A,,Overcast,300,2013-10-23 19:54:00
3:13 PM,37.4,26.6,65,30.09,10.0,NW,10.4,-,N/A,,Overcast,310,2013-10-23 20:13:00
3:33 PM,37.4,24.8,60,30.09,10.0,WNW,12.7,-,N/A,,Overcast,290,2013-10-23 20:33:00
3:54 PM,37.4,24.8,60,30.09,10.0,NW,12.7,-,N/A,,Overcast,310,2013-10-23 20:54:00
4:13 PM,37.4,24.8,60,30.10,10.0,NW,12.7,-,N/A,,Overcast,320,2013-10-23 21:13:00
4:33 PM,37.4,26.6,65,30.10,10.0,WNW,10.4,-,N/A,,Overcast,300,2013-10-23 21:33:00
4:53 PM,37.4,28.4,70,30.10,10.0,NW,11.5,-,N/A,,Overcast,310,2013-10-23 21:53:00
5:13 PM,37.4,28.4,70,30.10,10.0,NW,10.4,-,N/A,,Overcast,310,2013-10-23 22:13:00
5:34 PM,37.4,28.4,70,30.10,10.0,NW,9.2,-,N/A,,Overcast,320,2013-10-23 22:34:00
5:53 PM,37.4,30.2,75,30.10,10.0,NW,8.1,-,N/A,,Overcast,310,2013-10-23 22:53:00
6:13 PM,37.4,30.2,75,30.10,10.0,WNW,9.2,-,N/A,,Overcast,290,2013-10-23 23:13:00
6:33 PM,37.4,30.2,75,30.10,10.0,West,6.9,-,N/A,,Overcast,280,2013-10-23 23:33:00
6:53 PM,35.6,32.0,87,30.11,10.0,WNW,9.2,-,N/A,Rain,Light Rain,300,2013-10-23 23:53:00
7:13 PM,35.6,32.0,87,30.11,10.0,NW,5.8,-,N/A,,Overcast,320,2013-10-24 00:13:00
7:31 PM,35.6,32.0,87,30.11,10.0,NW,5.8,-,N/A,,Overcast,310,2013-10-24 00:31:00
7:53 PM,35.6,32.0,87,30.12,10.0,NNW,3.5,-,N/A,,Overcast,340,2013-10-24 00:53:00
8:13 PM,35.6,32.0,87,30.12,7.0,NW,3.5,-,N/A,,Overcast,310,2013-10-24 01:13:00
8:33 PM,35.6,32.0,87,30.12,10.0,NW,8.1,-,N/A,,Overcast,310,2013-10-24 01:33:00
8:53 PM,35.6,33.8,93,30.12,10.0,NW,6.9,-,N/A,,Overcast,310,2013-10-24 01:53:00
9:13 PM,35.6,33.8,93,30.12,10.0,NW,9.2,-,N/A,,Overcast,310,2013-10-24 02:13:00
9:33 PM,35.6,33.8,93,30.12,10.0,NNW,8.1,-,N/A,,Overcast,330,2013-10-24 02:33:00
9:53 PM,35.6,33.8,93,30.13,10.0,NNW,10.4,-,N/A,,Overcast,330,2013-10-24 02:53:00
10:13 PM,35.6,33.8,93,30.13,10.0,NNW,6.9,-,N/A,,Overcast,330,2013-10-24 03:13:00
10:33 PM,35.6,33.8,93,30.13,10.0,NW,4.6,-,N/A,,Overcast,320,2013-10-24 03:33:00
10:53 PM,35.6,33.8,93,30.13,10.0,WNW,4.6,-,N/A,,Overcast,290,2013-10-24 03:53:00
11:13 PM,35.6,33.8,93,30.13,10.0,WNW,4.6,-,N/A,,Overcast,290,2013-10-24 04:13:00
11:33 PM,35.6,33.8,93,30.13,10.0,NW,6.9,-,N/A,,Overcast,310,2013-10-24 04:33:00
11:53 PM,35.6,33.8,93,30.14,5.0,WNW,8.1,-,N/A,Rain,Rain,300,2013-10-24 04:53:00